Location: Nitra
(0.0000°N, 18.0833°E)
Time: 21:26:18
(UTC+02:00)

A-11 Canister half - Pass Details

Date: 31 March 2023
Orbit: 1526 x 1682 km, 47.3° (Epoch: 08 June)

Event Time Altitude Azimuth Distance (km) Brightness Sun altitude
Rises 14:14:05 0° 254° (WSW) 4,903 11.9 69.1°
Reaches altitude 10° 14:18:26 10° 270° (W) 3,927 11.6 68.0°
Maximum altitude 14:25:12 20° 313° (NW) 3,205 11.3 66.3°
Drops below altitude 10° 14:32:00 10° 356° (N) 3,928 11.4 64.7°
Sets 14:36:26 0° 13° (NNE) 4,904 11.6 63.6°
